Flag for Mexico Weather past 2 weeks in Ojinaga, Chihuahua, Mexico

Now
73 °F

Sunny.


Feels Like: 76 °F
Forecast: 68 / 99 °F
Wind: 5 mph from Southwest

Location: Marfa Municipal Airport

Current Time: Aug 2, 2015 at 9:20:22 AM

Latest Report: Aug 2, 2015 at 8:55 AM


Visibility: 10 mi

Pressure: 30.18 "Hg (27.56 "Hg at 788m altitude)

Humidity: 65%

Dew point: 61 °F

Location of OjinagaLocation

Historic Weather in Ojinaga — Graph

°F

Ojinaga temperature yesterday

Maximum temperature yesterday: 86 °F (at 12:15 PM)
Minimum temperature yesterday: 59 °F (at 6:15 AM)
Average temperature yesterday: 72 °F

Past Weeks' High & Low Weather Summary

 TemperatureHumidityPressure
High93 °F (Jul 18, 2:55 PM)100% (Jul 23, 2:35 AM)30.33 "Hg (Jul 23, 2:35 AM)
Low57 °F (Jul 31, 3:15 AM)21% (Jul 26, 6:15 PM)30.04 "Hg (Jul 21, 5:35 PM)
Average75 °F62%30.16 "Hg
* Reported Jul 18 8:15 AM — Aug 2 8:15 AM, Ojinaga, Weather by CustomWeather, © 2015

Note: Actual official high and low records may vary slightly from our data, if they occured in-between our weather recording intervals... More about our weather records

Advertising

Ojinaga weather history for previous 24 hours

 ConditionsComfort  
Time TempWeatherWind HumidityBarometerVisibility
8:15 AM
Sun, Aug 2
72 °FSunny.No wind73%30.18 "Hg10 mi
7:55 AM72 °FSunny.No wind73%30.17 "Hg10 mi
7:35 AM68 °FSunny.No wind83%30.16 "Hg10 mi
7:15 AM64 °FSunny.3 mph94%30.16 "Hg10 mi
6:55 AM63 °FClear.6 mph94%30.16 "Hg10 mi
6:35 AM61 °FClear.6 mph88%30.15 "Hg10 mi
6:15 AM61 °FClear.7 mph94%30.15 "Hg10 mi
5:55 AM61 °FClear.5 mph88%30.15 "Hg10 mi
5:35 AM61 °FClear.5 mph94%30.14 "Hg10 mi
5:15 AM59 °FClear.7 mph94%30.15 "Hg10 mi
4:55 AM61 °FClear.5 mph88%30.14 "Hg10 mi
4:35 AM61 °FClear.5 mph94%30.15 "Hg10 mi
4:15 AM61 °FClear.5 mph94%30.15 "Hg10 mi
3:55 AM63 °FClear.5 mph94%30.15 "Hg10 mi
3:35 AM63 °FClear.3 mph94%30.15 "Hg10 mi
3:15 AM64 °FClear.No wind88%30.16 "Hg10 mi
2:55 AM64 °FClear.No wind94%30.16 "Hg10 mi
2:35 AM64 °FPassing clouds.No wind94%30.16 "Hg10 mi
2:15 AM64 °FClear.No wind94%30.16 "Hg10 mi
1:55 AM64 °FClear.No wind88%30.16 "Hg10 mi
1:35 AM64 °FClear.No wind88%30.17 "Hg10 mi
1:15 AM66 °FClear.3 mph83%30.17 "Hg10 mi
12:55 AM68 °FClear.3 mph78%30.17 "Hg10 mi
12:35 AM64 °FClear.3 mph88%30.18 "Hg10 mi
12:15 AM66 °FClear.5 mph83%30.18 "Hg10 mi
11:55 PM
Sat, Aug 1
66 °FClear.5 mph83%30.17 "Hg10 mi
11:35 PM66 °FClear.5 mph83%30.18 "Hg9 mi
11:15 PM70 °FClear.5 mph73%30.18 "Hg10 mi
10:55 PM70 °FClear.6 mph73%30.18 "Hg10 mi
10:35 PM70 °FClear.7 mph73%30.18 "Hg10 mi
10:15 PM70 °FClear.8 mph73%30.18 "Hg10 mi
9:55 PM70 °FClear.7 mph78%30.17 "Hg10 mi
9:15 PM70 °FClear.8 mph73%30.16 "Hg10 mi
8:55 PM70 °FClear.7 mph78%30.15 "Hg10 mi
8:35 PM70 °FSunny.10 mph78%30.15 "Hg10 mi
8:15 PM72 °FSunny.7 mph78%30.14 "Hg10 mi
7:55 PM73 °FPassing clouds.6 mph69%30.13 "Hg10 mi
7:35 PM75 °FPartly sunny.7 mph65%30.13 "Hg10 mi
7:15 PM77 °FScattered clouds.7 mph61%30.13 "Hg10 mi
6:55 PM79 °FSunny.6 mph54%30.13 "Hg10 mi
6:35 PM81 °FSunny.7 mph51%30.13 "Hg10 mi
6:15 PM82 °FSunny.7 mph42%30.13 "Hg10 mi
5:55 PM82 °FSunny.7 mph42%30.13 "Hg10 mi
5:35 PM81 °FSunny.8 mph48%30.13 "Hg10 mi
5:15 PM79 °FSunny.12 mph51%30.15 "Hg10 mi
4:55 PM79 °FPassing clouds.10 mph51%30.16 "Hg10 mi
4:15 PM81 °FScattered clouds.14 mph54%30.17 "Hg10 mi
3:35 PM75 °FPassing clouds.16 mph65%30.18 "Hg10 mi
3:15 PM79 °FSunny.15 mph58%30.19 "Hg10 mi
2:55 PM75 °FScattered clouds.13 mph69%30.19 "Hg10 mi
2:35 PM72 °FThundershowers. Broken clouds.10 mph78%30.19 "Hg10 mi
2:15 PM72 °FOvercast.6 mph73%30.20 "Hg10 mi
1:55 PM68 °FThunderstorms. Cloudy.8 mph78%30.22 "Hg10 mi
1:35 PM68 °FOvercast.6 mph78%30.25 "Hg5 mi
1:15 PM75 °FThunderstorms. Mostly cloudy.24 mph54%30.24 "Hg10 mi
12:55 PM82 °FThundershowers. Broken clouds.20 mph40%30.22 "Hg10 mi
12:35 PM84 °FPartly sunny.14 mph37%30.22 "Hg10 mi
12:15 PM86 °FSunny.5 mph38%30.23 "Hg10 mi
11:55 AM84 °FSunny.6 mph40%30.24 "Hg10 mi
11:15 AM82 °FPassing clouds.8 mph48%30.24 "Hg10 mi
10:55 AM82 °FPassing clouds.7 mph48%30.25 "Hg10 mi
10:35 AM81 °FScattered clouds.No wind51%30.25 "Hg10 mi
10:15 AM79 °FPartly sunny.No wind51%30.25 "Hg10 mi
9:55 AM81 °FSunny.6 mph51%30.24 "Hg10 mi
9:15 AM77 °FSunny.6 mph57%30.25 "Hg10 mi
Weather by CustomWeather, © 2015

See weather overviewHow to use our weather pages